Weather History for Butte, MT

Change the Weather History Date:

Wednesday, June 26, 2013

  Actual Average Record
Temperature  
Mean Temperature 62 °F 59 °F  
Max Temperature 71 °F 74 °F 97 °F (1919)
Min Temperature 52 °F 43 °F 28 °F (1953)
Degree Days  
Heating Degree Days 3 7  
Month to date heating degree days 242 262  
Since 1 June heating degree days 242 262  
Since 1 July heating degree days 9029 9194  
Cooling Degree Days 0 0  
Month to date cooling degree days 1 0  
Year to date cooling degree days 1 0  
Since 1 June cooling degree days 1 0  
Growing Degree Days 10 (Base 50)    
Moisture  
Dew Point 44 °F    
Average Humidity 58    
Maximum Humidity 77    
Minimum Humidity 39    
Precipitation  
Precipitation T in 0.06 in 1.48 in (2014)
Month to date precipitation 1.53 2.04  
Year to date precipitation 4.84 6.95  
Sea Level Pressure  
Sea Level Pressure 29.99 in    
Wind  
Wind Speed 6 mph (WSW)    
Max Wind Speed 18 mph    
Max Gust Speed 24 mph    
Visibility 10 miles    
Events Rain    
T = Trace of Precipitation, MM = Missing Value Source: NWS Daily Summary

Daily Weather History Graph

Daily Weather History Graph

Search for Another Location

Airport:

Trip Planner

Search our weather history database for the weather conditions in past years. The results will help you decide how hot, cold, wet, or windy it might be!

Date:

Astronomy

Jun. 26, 2013 Rise Set
Actual Time 5:41 AM MDT 9:24 PM MDT
Civil Twilight 5:02 AM MDT 10:03 PM MDT
Nautical Twilight 4:10 AM MDT 10:54 PM MDT
Astronomical Twilight 2:58 AM MDT 12:06 AM MDT
Moon 11:34 PM MDT (6/26) 9:50 AM MDT (6/26)
Length of Visible Light 17h 00m
Length of Day
15h 43m
Waning Gibbous, 85% of the Moon is Illuminated
Jun 26
Waning Gibbous
Jun 29
Last Quarter
Jul 8
New
Jul 15
First Quarter
Jul 22
Full

Hourly Weather History & Observations

Time (MDT) Temp. Dew Point Humidity Pressure Visibility Wind Dir Wind Speed Gust Speed Precip Events Conditions
12:53 AM 55.9 °F 43.0 °F 62% 29.90 in 10.0 mi South 6.9 mph - N/A   Overcast
1:53 AM 54.0 °F 44.1 °F 69% 29.88 in 10.0 mi Calm Calm - N/A   Clear
2:53 AM 55.9 °F 43.0 °F 62% 29.89 in 10.0 mi SSW 3.5 mph - N/A   Partly Cloudy
3:53 AM 55.0 °F 44.1 °F 67% 29.90 in 10.0 mi Calm Calm - N/A   Clear
4:53 AM 52.0 °F 45.0 °F 77% 29.92 in 10.0 mi Calm Calm - N/A   Mostly Cloudy
5:53 AM 53.1 °F 44.1 °F 71% 29.95 in 10.0 mi NW 3.5 mph - N/A   Overcast
6:53 AM 55.0 °F 44.1 °F 67% 29.96 in 10.0 mi ENE 3.5 mph - N/A   Overcast
7:53 AM 57.0 °F 42.1 °F 57% 29.97 in 10.0 mi Calm Calm - N/A   Overcast
8:53 AM 57.9 °F 41.0 °F 53% 29.99 in 10.0 mi WSW 3.5 mph - N/A   Overcast
9:53 AM 60.1 °F 41.0 °F 49% 30.00 in 10.0 mi SW 6.9 mph - N/A   Overcast
10:53 AM 61.0 °F 39.9 °F 46% 30.01 in 10.0 mi SSW 10.4 mph - N/A   Overcast
11:53 AM 62.1 °F 39.9 °F 44% 30.02 in 10.0 mi WSW 4.6 mph - N/A   Overcast
12:53 PM 64.9 °F 41.0 °F 42% 30.01 in 10.0 mi SW 9.2 mph - N/A   Overcast
1:53 PM 66.0 °F 42.1 °F 42% 30.02 in 10.0 mi SSW 12.7 mph 18.4 mph N/A   Overcast
2:53 PM 68.0 °F 42.1 °F 39% 29.99 in 10.0 mi WSW 9.2 mph 17.3 mph N/A   Mostly Cloudy
3:53 PM 69.1 °F 44.1 °F 40% 30.00 in 10.0 mi West 17.3 mph 20.7 mph N/A   Mostly Cloudy
4:53 PM 66.9 °F 46.0 °F 47% 30.03 in 10.0 mi WNW 16.1 mph 21.9 mph N/A   Overcast
5:53 PM 64.9 °F 46.9 °F 52% 30.04 in 10.0 mi NNW 9.2 mph - 0.00 in Rain Light Rain
6:53 PM 66.0 °F 46.9 °F 50% 30.03 in 10.0 mi NNW 8.1 mph - 0.00 in   Mostly Cloudy
7:53 PM 64.0 °F 46.0 °F 52% 30.04 in 10.0 mi Calm Calm - N/A   Mostly Cloudy
8:53 PM 64.0 °F 46.0 °F 52% 30.05 in 10.0 mi NW 10.4 mph - N/A   Clear
9:53 PM 62.1 °F 46.0 °F 56% 30.08 in 10.0 mi NNE 3.5 mph - N/A   Overcast
10:53 PM 61.0 °F 46.0 °F 58% 30.09 in 10.0 mi NNE 5.8 mph - N/A   Scattered Clouds
11:53 PM 54.0 °F 46.9 °F 77% 30.11 in 10.0 mi SSE 3.5 mph - N/A   Clear